Regional Weather Roundup
Issued by NWS Raleigh/Durham, NC

Home | Current Version | Previous Version | Text Only | Print | Product List | Glossary On
Versions: 1 2 3 4 5 6 7 8 9 10 11 12 13 14 15 16 17 18 19 20 21 22 23 24 25 26 27 28 29 30 31 32 33 34 35 36 37 38 39 40 41 42 43 44 45 46 47 48 49 50
000
ASUS42 KRAH 241210
RWRRAH
NORTH CAROLINA WEATHER ROUNDUP
NATIONAL WEATHER SERVICE RALEIGH NC
800 AM EDT WED MAY 24 2017

NOTE: "FAIR" INDICATES FEW OR NO CLOUDS BELOW 12,000 FEET WITH NO
SIGNIFICANT WEATHER AND/OR OBSTRUCTIONS TO VISIBILITY.

NCZ001-053-055-056-065-067-241300-
WESTERN NORTH CAROLINA

CITY           SKY/WX    TMP DP  RH WIND       PRES   REMARKS
ASHEVILLE      CLOUDY    61  57  87 SE5       29.66S
JEFFERSON      FOG       55  55 100 CALM      29.70S VSB 1/4
HICKORY        CLOUDY    61  61 100 CALM      29.66S FOG
RUTHERFORDTON  CLOUDY    63  63 100 CALM      29.66S
MOUNT AIRY     CLOUDY    61  57  86 E7        29.69S
BOONE          CLOUDY    55  55 100 E3        29.70R FOG
$$

NCZ021-022-025-041-071-084-088-241300-
CENTRAL NORTH CAROLINA

CITY           SKY/WX    TMP DP  RH WIND       PRES   REMARKS
CHARLOTTE      CLOUDY    66  62  87 S9        29.67S
GREENSBORO     CLOUDY    61  61 100 NE6       29.67S
WINSTON-SALEM  LGT RAIN  61  58  90 NE5       29.68S
RALEIGH-DURHAM CLOUDY    66  64  93 VRB3      29.68S
FORT BRAGG     NOT AVBL
FAYETTEVILLE   MOSUNNY   70  66  87 W7        29.67F
BURLINGTON     CLOUDY    64  63  96 NE5       29.67R
LAURINBURG     CLOUDY    68  67  96 SW3       29.68S
$$

NCZ011-015-027-028-043-044-047-080-103-241300-
NORTHEASTERN NORTH CAROLINA

CITY           SKY/WX    TMP DP  RH WIND       PRES   REMARKS
ROCKY MT-WILSO CLOUDY    65  65 100 CALM      29.69R FOG
GREENVILLE     CLOUDY    64  64 100 NE6       29.71R FOG
WASHINGTON     CLOUDY    67  66  97 W5        29.68R
ELIZABETH CITY CLOUDY    63  63 100 N9        29.68R
MANTEO         CLOUDY    67  67  97 N5        29.67R
CAPE HATTERAS  CLOUDY    72  68  87 W8        29.68
$$

NCZ078-087-090-091-093-098-101-241300-
SOUTHEASTERN NORTH CAROLINA

CITY           SKY/WX    TMP DP  RH WIND       PRES   REMARKS
LUMBERTON      PTSUNNY   69  68  96 CALM      29.67F
GOLDSBORO      PTSUNNY   70  70 100 SW6       29.66R
KENANSVILLE    PTSUNNY   68  66  94 W3        29.68R
NEW BERN       CLOUDY    69  68  96 W6        29.68F
CHERRY POINT   CLOUDY    70  67  90 SW5       29.69R
BEAUFORT       CLOUDY    71  69  93 W8        29.68S
JACKSONVILLE   NOT AVBL
WILMINGTON     CLOUDY    70  68  93 W7        29.68S
$$




USA.gov is the U.S. government's official web portal to all federal, state and local government web resources and services.